Bookmark and Share
Track history (hours):
 

Furenas

Last reported at 2014-Apr-23 05:30 UTC. Time now 2014-Apr-24 04:08 UTC.
Position N 58°03' E 010°40'.

Length 137 m; draft 7.4 m.

Type: Tanker. MMSI: 231734000.

NotesDate/timePositionNaut miles runAvg speedWind from/ knotsBaromVisibWave heightAir tempDewpointWater temp
2014-Apr-23 05:30N 58°03' E 010°40'1112.0
2014-Apr-23 04:33N 57°56' E 010°23'1212.1
2014-Apr-23 03:33N 57°49' E 010°04'1212.3
2014-Apr-23 02:33N 57°41' E 009°46'43211.9
2014-Apr-21 14:11N 51°55' E 002°18'812.0
2014-Apr-21 13:29N 51°48' E 002°11'1312.0
2014-Apr-21 12:23N 51°37' E 001°59'1011.6
2014-Apr-21 11:33N 51°32' E 001°46'1111.5
2014-Apr-21 10:34N 51°26' E 001°30'1312.5
2014-Apr-21 09:32N 51°29' E 001°11'1312.7
2014-Apr-21 08:33N 51°29' E 000°51'1414.5
2014-Apr-21 07:33N 51°29' E 000°27'7 7.0
2014-Apr-21 06:33N 51°28' E 000°16'0 0.0
2014-Apr-21 05:33N 51°28' E 000°16'0 0.0
2014-Apr-21 04:33N 51°28' E 000°16'0 0.0
2014-Apr-21 03:33N 51°28' E 000°16'0 0.0
2014-Apr-21 02:34N 51°28' E 000°16'0 0.0
2014-Apr-21 01:34N 51°28' E 000°16'0 0.0
2014-Apr-21 00:34N 51°28' E 000°16'0 0.0
2014-Apr-20 23:34N 51°28' E 000°16'0 0.0
2014-Apr-20 22:34N 51°28' E 000°16'0 0.0
2014-Apr-20 21:34N 51°28' E 000°16'0 0.0
2014-Apr-20 20:34N 51°28' E 000°16'0 0.0
2014-Apr-20 19:34N 51°28' E 000°16'0 0.0
2014-Apr-20 18:34N 51°28' E 000°16'0 0.0
2014-Apr-20 17:34N 51°28' E 000°16'0 0.0
2014-Apr-20 16:34N 51°28' E 000°16'0 0.0
2014-Apr-20 15:34N 51°28' E 000°16'0 0.0
2014-Apr-20 14:34N 51°28' E 000°16'0 0.0
2014-Apr-20 13:34N 51°28' E 000°16'0 0.0
2014-Apr-20 12:34N 51°28' E 000°16'0 0.0
2014-Apr-20 11:34N 51°28' E 000°16'0 0.0
2014-Apr-20 10:34N 51°28' E 000°16'0 0.0
2014-Apr-20 09:34N 51°28' E 000°16'0 0.0
2014-Apr-20 08:34N 51°28' E 000°16'0 0.0
2014-Apr-20 07:34N 51°28' E 000°16'0 0.0
2014-Apr-20 06:34N 51°28' E 000°16'0 0.0
2014-Apr-20 05:34N 51°28' E 000°16'0 0.0
2014-Apr-20 04:34N 51°28' E 000°16'0 0.2
2014-Apr-20 03:34N 51°28' E 000°16'7 7.2
2014-Apr-20 02:34N 51°29' E 000°27'1413.6
2014-Apr-20 01:34N 51°29' E 000°49'1515.1
2014-Apr-20 00:33N 51°29' E 001°14'1211.6
2014-Apr-19 23:33N 51°24' E 001°30'9 8.8
2014-Apr-19 22:34N 51°17' E 001°38'10 9.5
2014-Apr-19 21:33N 51°08' E 001°39'59 9.8
2014-Apr-19 15:30N 50°25' E 000°35'6813.2
2014-Apr-19 10:24N 50°07' W 001°08'26310.2
2014-Apr-18 08:33N 51°26' W 007°45'1212.0
2014-Apr-18 07:33N 51°34' W 007°58'1212.1
2014-Apr-18 06:34N 51°43' W 008°12'7 7.3
2014-Apr-18 05:33N 51°50' W 008°16'0 0.0
2014-Apr-18 04:33N 51°50' W 008°16'0 0.0
2014-Apr-16 23:31N 51°50' W 008°16'1 1.3
2014-Apr-16 22:33N 51°49' W 008°16'3 2.8
2014-Apr-16 21:32N 51°46' W 008°16'0 0.0
2014-Apr-16 20:32N 51°46' W 008°16'0 0.0
2014-Apr-16 19:32N 51°46' W 008°16'0 0.0
2014-Apr-16 18:29N 51°46' W 008°16'0 0.0
2014-Apr-16 17:32N 51°46' W 008°16'2 2.5
2014-Apr-16 16:33N 51°45' W 008°12'1111.2
2014-Apr-16 15:33N 51°46' W 007°54'1211.9
2014-Apr-16 14:33N 51°49' W 007°36'1211.9
2014-Apr-16 13:33N 51°52' W 007°17'1211.9
2014-Apr-16 12:34N 51°55' W 006°58'1212.1
2014-Apr-16 11:33N 51°58' W 006°39'5911.1
2014-Apr-16 06:14N 52°46' W 005°43'7911.8
2014-Apr-15 23:33N 54°03' W 005°16'1212.0
2014-Apr-15 22:33N 54°15' W 005°15'1211.9
2014-Apr-15 21:33N 54°27' W 005°15'1212.0
2014-Apr-15 20:33N 54°39' W 005°17'1212.1
2014-Apr-15 19:33N 54°51' W 005°19'1312.7
2014-Apr-15 18:33N 55°04' W 005°20'2611.8
2014-Apr-15 16:21N 55°27' W 004°59'1211.6
2014-Apr-15 15:20N 55°39' W 004°59'912.0
2014-Apr-15 14:33N 55°48' W 004°58'11 5.5
2014-Apr-15 12:34N 55°58' W 004°50'1010.5
2014-Apr-15 11:34N 55°56' W 004°32'5 4.7
2014-Apr-15 10:30N 55°54' W 004°24'0 0.0
2014-Apr-15 09:33N 55°54' W 004°24'0 0.0
2014-Apr-15 08:33N 55°54' W 004°24'0 0.0
2014-Apr-15 07:33N 55°54' W 004°24'0 0.0
2014-Apr-15 06:32N 55°54' W 004°24'0 0.0
2014-Apr-15 05:29N 55°54' W 004°24'0 0.0
2014-Apr-15 03:29N 55°54' W 004°24'0 0.0
2014-Apr-15 02:32N 55°54' W 004°24'0 0.0
2014-Apr-15 01:32N 55°54' W 004°24'0 0.0
2014-Apr-15 00:29N 55°54' W 004°24'0 0.0
2014-Apr-14 23:32N 55°54' W 004°24'0 0.0
2014-Apr-14 22:32N 55°54' W 004°24'0 0.0
2014-Apr-14 21:30N 55°54' W 004°24'0 0.0
2014-Apr-14 19:32N 55°54' W 004°24'0 0.0
2014-Apr-14 18:32N 55°54' W 004°24'0 0.0
2014-Apr-14 17:32N 55°54' W 004°24'0 0.0
2014-Apr-14 16:32N 55°54' W 004°24'0 0.0
2014-Apr-14 15:32N 55°54' W 004°24'0 0.0
2014-Apr-14 14:32N 55°54' W 004°24'0 0.0
2014-Apr-14 13:32N 55°54' W 004°24'0 0.0
2014-Apr-14 11:32N 55°54' W 004°24'0 0.0
2014-Apr-14 10:32N 55°54' W 004°24'3 2.8
2014-Apr-14 09:34N 55°55' W 004°28'8 8.2
2014-Apr-14 08:34N 55°57' W 004°42'8 7.9
2014-Apr-14 07:34N 55°54' W 004°55'1211.8
2014-Apr-14 06:33N 55°42' W 005°00'35 3.4
2014-Apr-13 20:24N 55°14' W 005°36'1315.1
2014-Apr-13 19:33N 55°15' W 005°59'1414.4
2014-Apr-13 18:33N 55°23' W 006°19'1313.4
2014-Apr-13 17:34N 55°32' W 006°38'1312.5
2014-Apr-13 16:34N 55°39' W 006°55'1210.3
2014-Apr-13 15:26N 55°50' W 007°03'  

Dump ship's entire track history

sailing weather and tide predictions

Furenas — OZ2085 — position and weather